User: anonymous   Login
Location: Caltech
(34.1382°N, 118.1253°W)
Time: 21:21:59
(UTC-07:00)
Language:

Aureole 3 Rocket - Orbit

View from above orbital plane
View from above orbital plane
View from above satellite
View from above satellite

Ground track
Ground track

The orbit data is extracted from the following two-line orbital elements,

1 12849U 81094B   15215.83510215  .00001098  00000-0  98164-4 0  9995
2 12849 082.4960 330.8506 0907686 091.4756 279.0412 13.49354410649747
Epoch (UTC): 03 August 2015 20:02:32
Eccentricity: 0.0907686
inclination: 82.4960°
perigee height: 398 km
apogee height: 1751 km
right ascension of ascending node: 330.8506°
argument of perigee: 91.4756°
revolutions per day: 13.49354410
mean anomaly at epoch: 279.0412°
orbit number at epoch: 64974

The dashed part of the orbit path shows where the satellite is in the earth's shadow,  

DLR